This is the latest recevied weather packets stored in our database for station/object G4IRX-10. If no packets are shown the sender has not sent any weather packets the latest 10 day(s).
| Time | Temp. | Humidity | Pressure | Rain* | Wind** | Luminosity | Snow |
|---|---|---|---|---|---|---|---|
| 1777061844 | 21.67° C | 37% | 1024.2 hPa | - | - | - | - |
| 1777060944 | 21.67° C | 38% | 1024.1 hPa | - | - | - | - |
| 1777060044 | 22.22° C | 38% | 1024 hPa | - | - | - | - |
| 1777059143 | 22.78° C | 37% | 1023.8 hPa | - | - | - | - |
| 1777058243 | 22.78° C | 38% | 1023.7 hPa | - | - | - | - |
| 1777057343 | 23.33° C | 38% | 1023.8 hPa | - | - | - | - |
| 1777056443 | 23.89° C | 38% | 1023.7 hPa | - | - | - | - |
| 1777055543 | 23.89° C | 38% | 1023.7 hPa | - | - | - | - |
| 1777054643 | 24.44° C | 38% | 1023.7 hPa | - | - | - | - |
| 1777053743 | 24.44° C | 38% | 1023.7 hPa | - | - | - | - |
| 1777052843 | 25° C | 38% | 1023.7 hPa | - | - | - | - |
| 1777051943 | 25° C | 38% | 1023.7 hPa | - | - | - | - |
| 1777051043 | 25.56° C | 38% | 1023.9 hPa | - | - | - | - |
| 1777050142 | 26.11° C | 37% | 1023.9 hPa | - | - | - | - |
| 1777049242 | 25.56° C | 38% | 1024.1 hPa | - | - | - | - |
| 1777048342 | 25.56° C | 38% | 1024.1 hPa | - | - | - | - |
| 1777047442 | 25.56° C | 38% | 1024.3 hPa | - | - | - | - |
| 1777046542 | 26.11° C | 38% | 1024.3 hPa | - | - | - | - |
| 1777045642 | 25.56° C | 38% | 1024.5 hPa | - | - | - | - |
| 1777044742 | 25.56° C | 38% | 1024.5 hPa | - | - | - | - |
| 1777043842 | 25.56° C | 39% | 1024.8 hPa | - | - | - | - |
| 1777042942 | 25° C | 39% | 1024.8 hPa | - | - | - | - |
| 1777042042 | 25° C | 39% | 1025 hPa | - | - | - | - |
| 1777041142 | 25° C | 39% | 1025.4 hPa | - | - | - | - |
| 1777040241 | 25° C | 39% | 1025.5 hPa | - | - | - | - |
* Rain since midnight (hover to see other rain measurements)
** Current wind speed in m/s (hover to see current wind gust speed)